Location: D�rnast
(49.6426°N, 11.9755°E)
Time: 20:43:32
(UTC+00:00)

Lacrosse 5 - Pass Details

Date: 24 January 2021
Orbit: 715 x 724 km, 57.0° (Epoch: 01 March)

Event Time Altitude Azimuth Distance (km) Brightness Sun altitude
Rises 17:27:40 0° 301° (WNW) 3,123 5.9 -14.9°
Reaches altitude 10° 17:30:14 10° 292° (WNW) 2,200 5.2 -15.3°
Maximum altitude 17:34:44 33° 229° (SW) 1,183 3.6 -16.0°
Drops below altitude 10° 17:39:14 10° 166° (SSE) 2,190 4.3 -16.8°
Sets 17:41:47 0° 157° (SSE) 3,107 5.0 -17.2°
